RH
64 62 60 58 56 53 51 50 48 47 46 50 55 62 67 73 78 80 79 76 72 67 64 61 60 59 58 59 61 63 65 69 71 72 72 73 72 72 71 72 72 72 73 75 78 81 82 83 83 83 84 84 84 84 83 82 83 83 83 80 78 76 77 78 79 79 78 80 84 89 91 87 83 79 77 77 79 81 82 81 80 80 81 80 80 80
66 64 62 60 58 57 56 56 55 54 54 55 58 61 64 69 75 80 81 81 79 76 72 69 67 66 64 63 62 62 61 64 68 72 74 74 74 74 73 74 74 75 75 76 77 79 81 82 83 84 84 84 83 82 81 81 81 82 82 80 78 76 77 79 79 80 82 84 87 88 87 83 80 78 77 79 81 83 82 81 81 80 80 80 80 80
67 66 64 62 61 61 60 60 59 58 58 58 59 59 60 64 70 77 81 83 82 81 79 78 77 75 73 70 67 63 58 59 64 70 74 75 76 77 77 77 76 76 77 77 77 77 79 81 82 83 84 83 81 79 78 79 80 81 81 80 78 77 77 79 80 83 86 87 87 86 82 79 78 78 79 81 81 81 80 80 80 80 80 80 80 80
68 67 66 65 65 64 63 63 62 61 60 59 59 58 58 60 65 70 76 80 82 82 81 82 83 82 80 76 71 65 57 57 60 66 73 75 76 77 78 78 77 76 76 76 76 77 77 79 81 83 84 83 80 78 77 78 78 79 80 79 78 77 78 79 81 84 87 87 86 83 79 77 77 79 80 80 80 80 80 80 80 80 80 80 81 81
70 69 68 68 68 68 67 65 64 62 61 61 60 59 58 59 61 65 69 75 79 82 83 83 84 84 83 79 74 67 59 57 59 64 70 74 76 77 77 77 76 75 75 75 75 76 76 78 80 82 84 82 79 77 77 78 77 78 79 79 78 78 78 80 83 87 88 87 84 81 78 78 79 80 80 80 80 79 79 79 79 80 80 81 81 82
72 70 70 70 70 70 69 68 66 65 64 64 63 62 61 61 61 64 68 73 76 80 82 83 84 84 84 80 75 70 63 60 61 65 69 73 75 77 77 76 75 75 75 76 75 75 76 78 80 82 83 80 78 76 77 77 77 77 77 78 79 79 79 83 87 90 91 87 83 79 78 79 80 81 81 80 79 78 78 78 78 79 79 80 80 80
73 72 72 72 72 72 72 71 69 67 66 67 67 67 66 65 65 66 68 71 74 76 79 81 82 82 82 80 75 71 66 64 65 67 70 74 76 77 77 76 76 77 78 78 77 76 76 78 80 81 81 78 77 77 77 77 77 77 77 78 79 80 82 87 91 92 90 85 81 79 79 80 81 81 80 79 78 77 77 77 77 78 78 78 78 78
74 73 73 73 74 74 74 73 72 70 69 69 70 70 70 70 70 70 71 72 74 75 77 79 79 79 79 77 74 70 67 66 66 67 69 71 74 75 76 77 78 79 80 79 79 78 78 79 80 80 78 77 77 77 77 78 78 78 78 79 81 83 86 90 92 91 87 83 81 80 81 82 81 80 78 77 77 77 78 79 79 78 77 77 77 78
77 75 74 74 74 74 74 74 73 72 71 71 71 71 72 73 73 74 75 76 77 78 79 79 79 78 77 75 73 71 68 67 66 66 66 66 66 67 68 72 76 79 81 81 81 80 80 80 80 79 77 77 77 78 78 78 79 80 81 83 86 88 89 91 91 88 84 82 82 82 83 82 80 79 77 77 77 78 79 80 80 78 76 76 77 78
79 77 75 74 74 74 74 75 74 73 72 72 72 72 72 72 73 75 78 79 81 81 80 80 80 79 78 76 74 73 71 71 70 70 69 67 65 64 64 66 70 74 78 80 81 82 81 82 82 81 79 79 80 80 80 80 81 82 84 86 87 89 90 90 88 86 83 83 83 83 83 81 79 77 77 76 77 78 80 79 78 77 76 76 78 79
79 78 77 76 76 75 75 76 75 74 73 73 74 74 73 73 74 75 79 80 81 82 82 81 80 79 79 77 76 75 75 75 74 74 73 72 72 72 72 72 73 74 75 77 79 81 83 83 83 83 83 83 83 84 83 83 84 84 85 86 87 88 88 87 86 84 83 83 83 83 82 79 78 77 77 78 78 79 78 77 76 76 77 78 80 81
79 78 77 77 77 77 76 76 75 75 75 77 78 77 76 76 77 79 81 81 81 81 81 80 80 79 78 78 77 78 78 77 76 75 74 74 75 77 79 81 81 81 81 80 80 81 82 83 83 83 84 84 84 84 85 85 85 84 85 85 85 86 86 85 84 84 84 84 83 82 80 78 77 77 77 78 77 77 76 76 76 77 78 80 81 83
78 77 76 76 76 76 76 76 76 77 78 82 82 81 79 80 81 83 84 83 82 81 80 79 79 78 78 77 77 78 79 78 77 76 75 75 75 77 79 81 83 83 83 83 82 81 81 82 82 81 82 82 82 82 82 83 83 84 84 84 84 84 84 84 84 84 84 83 82 80 79 78 78 78 78 77 76 75 76 76 77 78 79 80 82 83
79 78 77 77 76 75 76 76 76 77 79 83 83 83 81 83 84 85 85 84 82 82 82 81 80 79 78 78 78 78 78 78 78 77 76 75 75 76 77 78 79 79 80 81 82 81 80 82 83 84 83 83 83 82 82 83 83 84 84 83 83 83 83 83 83 83 82 81 80 79 78 78 79 79 76 75 75 76 76 77 78 79 79 80 81 82
79 79 77 76 75 74 74 75 75 76 77 81 84 86 86 86 86 86 85 84 83 82 82 83 82 81 79 79 78 78 77 77 77 77 76 76 75 75 75 76 76 75 75 76 77 77 77 80 82 83 84 84 84 84 84 85 85 85 84 83 82 81 81 80 80 80 80 80 79 79 79 79 79 78 76 75 76 76 77 77 78 78 79 80 81 81
78 78 77 75 74 73 72 73 75 77 78 82 85 88 89 88 86 85 84 83 82 82 82 83 82 81 80 79 79 78 78 77 77 77 76 76 75 75 75 75 74 74 73 73 73 73 72 75 77 78 78 78 79 80 82 82 82 82 80 80 79 79 78 78 79 79 79 79 79 79 79 79 79 78 76 76 76 77 77 78 78 78 78 79 80 80
77 77 76 75 73 73 72 73 75 79 81 84 86 88 89 88 86 85 84 83 82 82 81 81 80 79 76 75 76 78 78 78 77 77 76 76 75 75 74 74 74 73 72 72 71 70 70 70 71 71 70 68 67 68 71 72 73 72 71 72 73 74 74 75 76 77 78 78 79 80 81 80 80 79 77 76 77 77 78 78 78 78 78 78 79 80
78 77 77 76 74 73 72 74 77 80 84 86 87 88 89 89 88 87 85 84 83 82 80 79 77 75 72 71 72 75 77 77 78 78 78 77 76 76 75 75 74 74 72 72 71 71 70 69 68 66 64 61 61 61 61 62 63 66 67 69 71 72 73 74 75 76 78 79 80 81 82 82 81 80 78 77 77 77 78 78 78 78 78 78 79 80
78 78 78 77 75 73 73 75 78 82 86 88 89 89 89 89 89 88 87 85 84 82 80 78 76 74 72 70 70 71 74 77 78 79 79 79 78 77 76 76 76 75 75 74 73 72 72 70 68 65 63 61 60 59 60 62 64 67 69 72 73 74 74 75 76 78 79 81 82 82 83 82 81 80 78 77 77 77 77 78 78 78 78 78 79 79
77 78 78 77 76 75 75 77 79 82 85 87 88 89 89 88 88 88 87 85 83 82 81 79 76 75 73 72 70 71 73 76 79 80 81 80 79 78 77 77 77 78 78 77 75 74 74 72 69 67 65 64 64 64 65 68 70 72 74 75 75 75 76 77 78 80 81 82 83 84 83 82 81 80 78 77 77 77 78 78 78 78 78 78 78 79
76 75 76 77 77 77 76 79 81 83 83 86 88 88 87 86 86 86 85 84 83 82 81 79 77 75 73 73 72 72 75 78 80 82 82 81 80 79 78 78 78 79 80 79 78 76 75 73 71 68 66 66 66 68 70 72 73 74 75 75 76 77 78 78 80 81 82 83 83 84 83 82 81 80 79 78 77 77 78 78 79 79 78 78 78 78
76 74 75 77 78 79 78 79 82 84 84 87 89 89 87 86 84 83 83 83 82 81 80 78 76 75 74 74 73 74 75 78 81 82 81 81 80 79 78 78 79 80 80 79 77 75 74 73 71 69 66 66 66 68 70 72 73 74 75 76 77 78 79 79 80 82 83 83 83 83 82 81 80 79 78 78 78 78 78 79 79 79 79 78 78 78
78 75 74 78 81 83 83 82 83 85 87 88 88 86 83 83 82 81 80 81 81 80 79 77 76 76 76 76 76 77 78 79 81 81 81 80 78 76 76 76 78 79 78 77 75 74 73 72 71 69 67 67 67 68 70 71 73 75 76 76 77 78 79 80 81 82 83 83 83 82 81 80 80 79 78 78 78 78 79 79 80 80 79 79 78 78
84 80 78 81 84 87 87 86 86 88 89 90 89 87 85 83 82 82 81 82 82 81 80 80 80 80 80 80 81 82 82 82 82 82 82 79 76 73 72 73 75 75 75 73 72 71 70 70 69 69 68 67 68 69 71 72 74 75 77 77 78 79 80 81 81 82 82 82 82 81 80 80 79 79 79 78 79 79 80 80 81 81 80 79 79 79
92 88 85 86 88 89 90 89 89 90 90 91 91 90 88 87 86 86 85 85 85 85 84 84 84 83 82 82 83 84 84 83 83 82 82 78 75 71 69 70 71 72 71 70 69 69 69 69 69 69 69 68 69 70 71 73 75 77 78 78 79 79 80 81 81 81 82 81 81 80 79 79 78 78 78 78 79 79 80 81 81 82 81 79 79 78
96 94 92 90 90 91 91 91 90 90 90 91 92 92 92 92 92 92 92 90 89 88 88 87 85 83 80 80 82 83 83 83 83 82 81 77 74 72 70 69 69 70 70 69 69 69 69 69 70 70 70 69 69 70 72 74 75 77 79 79 79 80 80 81 81 82 82 81 80 79 78 78 78 78 78 78 79 80 81 81 82 81 80 79 78 78
96 96 95 93 93 92 92 91 91 90 91 91 92 93 94 95 95 95 93 91 90 89 89 86 83 81 79 78 78 79 79 81 82 82 80 78 76 74 72 71 70 70 70 70 69 69 70 71 71 71 71 71 71 71 71 73 75 76 77 78 79 79 80 80 81 81 81 80 79 78 77 76 76 77 77 78 79 80 81 82 81 81 79 79 79 79
96 96 95 95 95 94 94 93 92 92 93 93 94 95 95 96 95 93 89 88 89 89 89 85 82 79 78 76 76 76 77 79 80 81 81 80 78 76 74 73 73 72 72 72 71 72 73 73 73 73 73 73 73 72 72 73 74 75 76 78 79 79 79 80 80 80 79 78 77 76 76 75 76 77 77 78 79 80 81 81 80 80 79 80 81 81
96 96 95 94 95 95 95 95 95 94 94 95 95 96 96 96 94 92 87 86 87 89 88 84 81 78 76 75 75 75 77 78 79 80 81 82 80 78 76 75 75 75 75 75 75 75 76 75 75 75 75 75 75 74 74 74 74 75 75 76 77 79 79 79 79 78 77 77 76 75 74 75 75 76 77 78 79 79 79 79 80 80 81 82 82 82
96 96 96 95 94 94 94 95 96 96 96 96 96 96 96 95 94 92 87 86 87 88 87 84 81 79 77 76 77 77 76 76 78 80 83 83 82 79 78 78 78 78 78 78 78 78 76 75 75 75 75 75 75 75 75 74 74 73 73 72 73 74 76 77 77 76 75 75 74 74 74 74 74 75 75 76 77 78 78 80 81 82 83 83 83 82
94 94 94 94 94 94 93 94 95 95 96 96 96 97 95 94 94 93 89 87 87 87 86 83 81 80 79 80 79 77 75 73 75 79 83 84 82 79 79 79 80 81 81 81 80 78 74 72 70 70 71 72 72 73 73 72 72 71 70 69 68 68 69 70 71 72 72 72 72 72 73 73 74 74 75 75 76 77 79 81 82 82 83 83 83 82
92 92 93 92 91 91 92 94 95 95 95 95 95 95 94 94 94 94 92 89 87 87 85 82 81 81 80 81 78 75 72 70 72 76 82 83 82 80 79 80 81 82 83 82 80 78 74 71 67 64 65 66 67 67 67 67 67 67 66 66 66 65 64 65 66 67 69 70 70 71 72 73 74 74 75 75 76 77 79 81 82 82 83 83 82 82
91 92 92 92 92 92 91 92 93 94 95 96 95 95 94 93 93 94 94 92 90 88 86 83 82 82 82 81 79 76 73 70 70 75 82 83 83 82 81 82 82 83 83 84 82 79 76 72 69 66 65 65 64 64 64 64 64 64 64 64 64 64 63 64 65 67 68 69 70 71 72 73 74 75 76 77 77 78 79 80 81 81 81 82 82 82
92 93 93 94 94 94 94 93 93 93 93 94 95 96 96 95 94 93 94 94 93 90 88 85 84 83 83 83 81 79 77 74 73 75 83 85 84 83 83 83 84 83 84 84 83 82 78 76 73 71 69 67 65 64 63 63 63 63 63 63 64 65 65 65 66 68 69 70 70 71 72 73 73 74 75 76 77 78 78 79 79 79 79 80 81 81
94 94 94 95 95 95 95 95 94 94 94 94 94 94 95 95 95 94 94 94 94 93 91 88 85 83 82 82 81 80 79 77 75 76 84 87 86 84 83 84 84 84 83 82 82 81 78 77 75 73 70 68 66 65 64 63 63 63 64 64 65 66 66 66 67 68 69 71 71 72 73 73 73 74 74 75 75 75 76 76 77 77 78 78 79 80
94 93 93 94 94 95 95 95 95 95 95 94 94 93 93 93 93 94 95 95 95 95 93 91 87 84 81 80 79 79 78 77 77 78 83 87 87 85 83 83 83 83 82 81 80 78 77 75 73 71 69 68 66 64 63 63 63 64 64 65 66 66 67 67 68 69 70 71 72 73 73 74 74 74 74 74 74 74 75 75 76 77 78 79 80 81
92 91 90 91 92 93 93 93 94 94 94 94 94 93 93 91 91 91 92 95 96 96 95 94 92 89 85 82 81 80 78 77 78 79 82 86 88 87 84 83 83 83 82 80 79 78 76 74 72 70 68 67 66 64 63 63 64 64 65 66 66 67 67 68 68 70 71 72 73 73 74 74 74 74 74 74 74 75 76 77 77 78 79 80 80 81
90 89 87 88 88 89 89 89 89 90 91 91 90 90 90 90 90 90 90 93 95 96 96 95 95 94 92 89 87 85 83 82 81 81 83 86 89 89 86 85 85 84 83 82 80 79 77 75 74 71 69 67 65 64 64 64 65 66 66 66 66 66 67 67 68 70 71 72 73 74 74 75 75 74 75 75 75 75 76 77 77 78 79 79 79 79
88 86 85 84 84 84 84 84 85 86 88 87 87 86 87 89 90 91 91 93 94 96 96 96 96 96 96 95 94 93 92 90 88 87 87 90 92 92 91 90 89 88 87 85 83 82 79 77 76 74 73 70 67 66 66 66 67 67 68 68 67 67 67 67 68 69 71 72 74 75 75 76 76 76 76 76 76 76 77 77 77 77 77 77 77 77
85 84 83 82 82 82 82 82 83 84 84 85 85 85 87 90 92 94 94 94 95 96 96 96 96 96 96 96 97 97 97 96 95 94 93 94 95 96 95 95 94 92 91 90 88 85 82 80 77 75 72 71 71 70 70 69 69 70 69 69 69 68 67 67 68 69 70 72 74 75 76 77 77 77 77 77 77 77 78 78 77 77 76 76 76 76
84 83 82 81 81 81 81 82 83 83 84 85 86 87 88 91 92 94 95 96 96 96 96 96 96 96 97 97 97 97 97 97 97 97 97 97 97 97 96 96 95 94 92 91 89 87 84 82 80 79 77 77 76 76 75 73 72 72 71 71 71 69 68 68 69 70 71 73 74 75 77 77 78 78 78 78 78 78 78 78 78 77 77 76 76 75
83 82 81 81 81 81 81 81 82 84 85 86 88 89 91 91 93 94 95 95 96 96 96 96 96 96 96 96 96 97 97 97 97 97 97 97 97 97 97 96 96 95 93 91 89 87 86 85 84 84 83 83 82 81 79 76 75 74 73 73 73 72 72 70 70 70 71 72 73 75 75 77 78 78 78 78 78 78 77 77 77 77 76 76 76 75
82 81 81 81 81 80 80 81 83 84 86 87 89 90 91 91 92 93 93 93 93 94 94 94 95 94 93 93 94 95 96 96 96 96 97 97 96 96 96 96 96 95 95 93 91 90 88 88 89 88 87 86 86 85 83 80 78 76 75 75 75 75 74 71 69 68 68 70 71 73 75 76 77 78 78 77 77 77 77 77 77 77 76 76 76 77
84 83 82 82 82 82 81 82 83 85 87 88 88 88 89 90 92 93 93 93 92 92 93 93 94 94 92 91 91 91 94 95 95 95 96 96 96 96 96 96 96 96 95 95 93 92 90 89 89 88 87 87 87 87 85 83 80 78 76 75 75 75 74 71 70 69 69 69 70 71 74 76 78 78 78 78 78 77 76 76 76 76 76 77 77 77
87 86 85 84 84 83 83 83 83 84 85 87 88 88 88 90 91 93 94 93 93 92 92 93 94 93 92 89 88 89 91 93 95 95 95 95 96 96 96 96 96 96 95 95 95 94 91 89 87 86 85 86 87 87 85 83 80 78 75 74 73 73 74 72 71 71 72 71 71 71 73 75 77 79 79 78 78 77 76 76 76 76 76 77 78 78
91 90 88 86 85 84 83 83 83 83 85 86 87 88 88 90 92 93 93 93 93 93 92 93 93 92 89 87 86 87 88 90 92 94 95 95 95 95 95 95 96 96 95 96 96 95 94 92 90 87 86 86 86 85 83 81 79 77 73 72 71 71 71 71 70 71 71 72 73 74 74 76 78 79 80 79 78 77 76 76 76 76 77 77 78 78
94 92 91 88 86 85 83 82 82 83 85 86 87 88 89 91 93 94 94 93 93 93 93 94 94 91 88 85 84 85 86 87 88 90 92 94 94 94 95 95 95 95 96 96 96 95 95 96 94 92 91 89 86 83 80 79 78 77 76 75 74 73 72 71 70 70 71 72 74 75 76 78 79 80 80 79 78 77 76 75 76 76 77 78 78 79
95 93 92 90 88 86 85 83 83 84 85 85 87 88 90 92 94 95 95 94 94 93 93 94 93 91 88 86 84 84 84 84 85 86 87 89 91 91 92 93 94 95 95 95 95 95 95 95 95 95 95 92 89 85 81 79 78 77 76 75 75 74 74 72 71 71 72 73 74 76 78 80 81 81 80 79 77 76 75 75 75 76 77 78 79 79
95 94 93 91 90 89 87 86 85 85 85 85 86 88 90 93 94 94 94 94 94 94 93 92 91 90 88 86 85 84 84 83 83 83 84 85 86 87 88 90 92 94 95 95 95 95 95 95 95 95 95 94 92 89 85 82 81 79 78 76 75 75 74 73 72 72 73 74 75 77 78 80 80 80 80 80 79 77 75 74 74 75 76 77 78 79
95 95 95 93 92 90 89 88 87 86 86 85 86 87 90 93 95 95 94 94 94 93 92 90 89 88 86 85 85 84 85 84 84 84 84 84 84 85 86 88 91 93 94 94 94 93 93 92 92 91 91 92 93 93 91 88 85 83 82 80 78 77 76 76 75 73 73 74 75 77 79 80 81 81 81 81 80 78 76 75 74 74 75 76 77 78
96 96 95 94 93 91 90 89 89 88 87 87 86 87 90 92 94 95 95 94 93 92 91 90 88 87 86 85 84 84 85 85 85 85 85 85 84 85 86 88 90 92 92 91 89 88 86 84 81 79 79 81 85 89 91 90 88 86 84 81 79 78 78 78 76 75 75 76 78 79 81 82 82 83 83 83 81 79 76 74 73 72 73 74 75 75
Wind_Speed
23 23 22 23 23 23 25 25 26 26 27 28 28 27 27 27 27 28 28 28 29 29 30 30 31 31 32 31 31 30 29 28 28 28 29 29 29 29 28 28 28 27 27 27 27 27 26 26 26 26 26 26 26 26 26 26 26 26 25 25 25 25 25 25 25 24 24 24 24 25 25 24 24 25 25 25 25 26 26 26 26 26 27 27 27 28
23 23 23 23 23 24 24 25 26 27 27 27 28 28 28 28 29 29 30 30 31 31 31 31 32 32 33 33 32 31 31 29 28 28 28 28 28 28 28 27 27 27 27 27 27 27 27 27 27 27 27 27 27 27 27 27 26 26 26 26 26 26 26 25 25 25 24 25 25 25 25 25 25 25 25 25 26 26 26 26 26 27 27 27 28 28
21 21 22 23 23 24 24 25 26 27 27 27 27 28 28 29 31 31 31 31 31 32 33 33 33 33 33 33 33 33 32 31 29 28 27 27 27 27 27 27 27 27 27 27 27 28 28 28 28 28 28 28 28 28 27 27 27 27 26 26 26 26 26 26 26 25 25 26 26 25 25 25 25 25 25 25 26 26 26 26 26 27 27 27 28 28
21 21 22 22 23 24 25 25 25 26 27 28 27 27 27 28 30 31 31 32 32 32 33 34 33 33 33 33 33 33 32 31 30 29 27 27 27 27 27 27 27 27 28 28 28 28 29 29 29 29 28 28 28 28 28 28 27 27 27 27 27 27 27 26 26 26 26 26 26 25 25 25 26 26 26 26 26 26 26 26 27 27 27 28 28 28
23 22 22 21 21 23 24 24 24 25 26 27 27 27 27 27 28 29 29 30 31 32 33 34 34 33 33 32 33 33 32 32 31 30 28 28 27 27 28 28 28 28 29 29 29 30 30 30 30 29 29 29 29 29 28 28 28 28 28 27 27 27 27 27 27 27 27 27 26 25 25 26 26 26 26 26 26 26 27 27 27 27 28 28 28 28
23 23 22 22 22 22 22 22 22 23 23 24 26 26 27 27 27 27 27 28 29 30 31 32 33 33 33 32 32 32 32 32 31 30 29 29 28 29 29 29 30 30 30 30 30 31 30 30 30 30 29 29 29 29 29 29 28 28 28 28 28 28 28 28 28 28 27 26 26 25 26 26 26 26 26 26 26 27 27 27 27 27 28 28 28 28
22 23 22 22 22 22 21 21 21 22 22 22 23 24 25 26 26 26 26 27 27 27 28 30 31 32 32 32 31 31 31 30 30 30 29 29 29 30 30 31 31 31 31 31 31 31 31 31 30 30 30 30 30 29 29 29 29 29 29 29 28 28 28 29 29 28 27 26 26 26 26 26 26 26 26 26 27 27 27 27 27 28 28 28 28 29
22 22 22 22 22 21 21 21 21 22 22 22 21 21 22 23 24 25 26 27 27 26 26 27 28 29 30 31 30 30 30 30 30 30 30 30 30 30 31 31 31 32 32 32 32 32 31 31 30 30 30 30 30 30 29 29 29 29 29 29 29 29 29 30 29 28 27 26 26 26 26 26 26 26 26 26 27 27 27 27 27 28 28 28 28 29
22 22 22 22 21 20 20 21 22 22 23 23 22 21 20 20 21 22 23 25 25 25 25 24 25 26 28 29 29 29 29 30 31 32 32 33 33 33 33 32 32 31 32 32 32 32 31 31 31 31 31 30 30 30 30 29 29 29 29 29 29 30 30 30 29 28 27 26 26 26 26 26 26 26 26 27 27 27 27 27 27 27 28 28 29 29
24 23 22 23 22 21 20 20 21 22 23 23 23 23 21 20 19 19 20 21 23 24 24 24 24 24 25 27 28 29 29 29 31 31 32 33 34 35 35 35 34 32 31 31 31 31 31 31 31 31 31 31 30 30 30 30 30 30 29 30 30 30 30 29 28 27 27 27 27 27 26 26 26 26 27 27 27 27 27 27 27 27 28 28 29 29
24 24 23 22 22 22 22 21 20 20 21 22 23 23 22 21 19 18 17 18 20 21 22 24 24 24 23 24 25 27 27 28 29 30 31 31 32 32 32 32 32 32 31 30 30 30 30 30 30 30 30 30 30 30 30 30 30 30 30 30 30 29 29 28 28 27 27 27 27 27 26 26 26 27 27 27 27 27 27 27 27 28 28 28 29 29
22 22 21 21 20 20 22 22 20 19 19 19 19 20 22 22 21 19 17 17 18 18 20 22 23 24 24 23 23 24 25 26 27 28 29 30 30 29 28 28 28 28 28 28 28 28 28 29 30 30 30 30 30 30 30 30 29 29 29 29 29 29 28 28 28 28 28 27 27 26 26 27 27 27 27 27 27 27 27 27 28 28 28 28 29 29
21 21 20 20 20 19 19 19 19 18 18 18 17 17 19 20 21 20 20 19 19 18 18 19 21 23 24 24 23 23 23 24 26 26 26 27 28 29 28 27 27 26 26 26 26 27 27 27 28 29 29 29 29 29 29 29 28 28 28 28 28 28 28 28 28 28 27 27 27 27 27 27 27 27 27 27 27 27 27 28 28 28 28 29 29 29
19 19 19 18 19 19 19 18 18 18 19 19 19 19 20 19 19 20 20 20 20 19 18 18 19 21 22 23 24 23 23 23 24 24 25 26 26 27 26 27 27 27 27 26 27 27 27 25 26 26 27 27 27 27 27 27 27 27 27 27 27 27 27 27 27 27 27 27 27 27 27 27 27 28 28 28 28 28 28 28 28 28 29 29 29 29
17 16 15 14 16 18 19 19 19 19 20 20 19 19 19 18 18 19 19 19 19 19 18 18 19 20 21 22 23 24 24 23 22 22 23 24 25 26 25 26 26 27 26 26 27 28 28 26 25 26 26 26 27 27 27 26 26 25 25 25 26 26 27 27 27 27 27 27 27 28 28 28 28 28 28 28 28 28 28 28 29 29 29 29 29 29
18 16 13 12 15 18 20 20 20 19 20 20 19 18 17 17 18 19 19 19 18 17 17 16 16 17 19 21 23 24 24 24 23 22 22 23 24 25 25 25 25 25 25 26 27 28 28 28 27 28 28 28 29 28 28 27 27 26 26 25 25 26 27 27 27 27 27 28 28 28 28 28 28 28 28 28 29 29 29 29 29 29 29 29 30 30
19 18 16 15 16 18 20 21 20 20 19 18 18 18 18 18 19 19 19 19 18 16 16 14 9 6 10 17 21 23 24 24 23 23 22 22 23 24 24 25 24 24 25 25 26 27 27 28 28 29 30 31 31 31 30 29 29 28 28 27 26 27 27 27 28 28 28 28 28 29 29 29 29 29 29 29 29 29 29 29 29 30 30 30 30 30
19 19 18 17 17 19 20 20 20 19 18 18 18 19 19 19 19 19 19 19 17 16 15 15 11 6 4 9 15 19 23 24 23 22 21 22 22 23 24 24 25 24 24 25 25 26 27 27 28 29 30 31 31 31 31 31 30 29 28 27 27 28 28 28 28 28 29 29 29 29 29 29 29 29 29 29 30 30 30 30 30 30 30 30 30 30
20 21 20 19 19 20 20 20 20 19 18 18 18 18 18 19 19 19 19 19 18 18 17 15 15 14 12 12 14 17 20 23 23 21 20 21 21 22 23 23 24 24 24 24 25 25 25 26 27 28 29 29 29 29 29 29 28 28 27 27 28 28 28 29 29 29 29 29 30 30 30 30 30 30 30 30 30 30 30 30 31 31 31 31 31 31
23 23 23 22 21 21 21 21 21 21 20 20 19 19 18 19 19 19 19 20 20 20 19 18 17 17 18 18 17 17 18 21 22 21 20 20 20 21 21 23 23 23 23 24 25 25 25 26 27 27 27 27 27 27 27 27 27 27 27 27 28 28 28 29 29 29 29 30 30 30 30 30 30 30 30 30 31 31 31 31 31 31 31 31 31 31
25 26 26 25 23 22 22 22 23 23 23 22 21 20 19 19 19 19 20 21 21 20 20 19 20 20 20 19 19 18 18 20 20 19 17 17 18 19 20 22 23 22 23 23 24 25 25 25 26 27 27 26 26 26 26 26 26 27 27 27 28 28 29 29 29 30 30 30 31 31 31 31 31 31 31 31 31 31 31 31 32 32 32 32 32 32
28 28 28 27 26 25 25 25 24 25 25 25 23 21 21 20 20 21 22 22 21 21 21 21 22 22 22 21 19 19 19 20 21 19 15 13 15 17 19 21 22 22 22 22 23 24 24 25 26 26 27 26 26 26 26 26 27 27 27 28 28 29 29 29 30 30 30 31 31 31 31 31 31 31 31 31 31 32 32 32 32 32 32 32 32 32
31 31 29 28 28 27 27 26 26 26 26 27 27 27 26 25 24 24 24 23 23 23 23 23 23 22 21 21 20 19 19 20 21 19 15 10 11 16 17 19 20 20 21 21 22 23 23 24 25 26 27 27 26 26 26 27 27 27 28 28 28 29 29 30 30 30 31 31 31 31 31 32 32 32 32 32 32 32 32 32 32 32 32 32 32 32
32 31 29 28 28 29 28 27 26 26 27 29 30 31 30 30 29 27 25 24 23 23 22 20 19 18 19 20 20 19 20 20 21 19 16 13 13 15 16 18 19 19 20 21 21 22 22 24 25 26 26 27 27 27 27 27 27 28 28 28 29 29 30 30 30 31 31 31 31 32 32 32 32 32 32 32 32 32 32 32 32 33 33 33 33 33
31 31 30 29 29 29 28 28 27 28 29 30 31 31 31 30 29 27 25 23 21 19 18 16 15 15 17 18 18 19 20 21 21 20 18 15 15 16 16 18 18 19 19 20 21 21 22 23 24 25 26 27 27 27 27 27 27 28 28 29 29 29 30 30 30 31 31 31 31 32 32 32 32 32 32 32 32 32 32 32 33 33 33 33 33 33
28 30 31 30 30 30 29 30 29 29 30 31 32 32 30 29 26 24 21 19 18 17 15 13 12 13 16 16 16 17 20 21 22 22 20 17 15 16 17 18 19 19 19 19 20 20 21 22 23 24 26 27 27 28 27 27 28 28 28 29 29 29 30 30 30 31 31 31 32 32 32 32 33 33 33 33 33 33 33 32 32 33 33 33 33 33
25 27 29 31 32 31 31 31 32 32 31 31 32 32 31 29 25 21 19 19 18 17 15 11 8 10 14 14 15 17 19 20 22 23 23 20 16 15 17 18 19 19 19 19 19 20 21 21 22 24 25 26 27 28 28 28 28 28 28 28 29 29 29 30 30 31 31 31 32 32 32 32 32 32 32 32 32 32 32 32 32 33 33 33 33 32
26 25 25 28 31 33 33 33 33 33 33 32 32 31 31 28 25 22 22 22 20 19 16 11 8 7 8 10 14 18 19 19 21 23 24 21 17 15 18 18 18 18 18 18 18 19 20 21 22 23 24 25 26 27 28 28 28 28 28 28 29 29 29 30 30 31 31 31 32 32 32 32 32 32 32 32 32 32 32 32 32 33 33 32 31 31
28 26 24 24 26 30 33 34 35 34 34 34 33 32 31 30 27 25 24 24 21 18 17 15 13 10 9 12 15 16 18 19 21 22 23 20 17 17 19 18 18 18 17 15 16 17 19 21 22 23 24 25 25 26 27 27 28 28 28 28 28 29 29 29 30 30 31 31 31 31 32 32 32 32 32 32 32 32 32 32 32 32 32 31 30 30
26 26 25 24 23 24 27 31 33 34 35 35 35 34 34 33 31 29 28 25 22 19 17 17 16 15 13 11 10 10 13 18 21 22 22 19 17 17 19 18 18 18 17 13 9 9 13 18 21 23 24 25 25 26 27 27 27 27 28 28 28 28 29 29 29 29 30 30 30 31 31 31 31 32 32 32 32 32 32 33 32 31 31 30 29 29
23 24 24 24 23 22 21 23 26 29 32 34 35 36 36 35 34 32 29 26 24 22 20 19 18 17 15 8 4 4 6 15 20 22 23 20 18 18 19 18 18 19 19 14 6 1 5 10 15 19 21 23 24 25 26 26 27 27 27 27 28 28 28 28 28 28 28 29 30 30 31 31 31 32 32 32 32 33 33 33 32 31 30 29 28 28
22 22 22 22 23 23 22 21 21 22 24 27 31 34 35 35 34 33 32 30 27 25 23 22 21 20 19 13 9 6 6 13 19 22 24 22 19 19 19 18 18 19 21 20 14 7 4 3 8 13 16 19 21 23 24 24 25 25 26 26 27 27 27 27 26 27 27 28 29 29 30 31 31 31 32 32 32 33 33 32 32 30 29 28 28 28
22 21 21 20 21 21 22 22 21 20 21 22 24 27 29 30 30 31 32 32 31 29 26 24 22 21 20 19 17 15 15 16 18 21 24 23 19 18 19 19 18 18 20 21 20 17 11 9 10 12 14 16 18 19 21 21 22 23 23 24 25 26 26 26 26 26 27 27 28 28 29 30 30 31 31 32 32 32 32 32 32 31 30 29 28 28
21 21 20 19 19 20 20 21 21 21 21 21 21 23 24 25 25 26 29 32 33 32 30 27 24 22 20 18 18 19 19 19 19 21 23 24 20 18 18 19 19 18 18 18 18 18 16 16 15 14 14 16 17 18 19 20 21 22 23 24 25 26 26 26 26 26 27 27 28 28 29 29 29 30 30 31 31 31 31 31 31 31 30 29 29 28
20 20 19 18 18 18 19 20 20 20 21 21 21 22 23 24 23 22 23 27 30 33 33 31 29 27 24 20 18 18 20 21 22 22 23 25 23 19 18 19 20 19 17 16 16 15 14 16 17 16 14 15 17 18 19 20 21 22 23 24 25 26 26 27 26 27 27 28 28 29 29 29 29 30 30 30 30 31 31 31 31 31 31 31 30 29
19 19 19 19 18 18 18 18 19 19 20 20 21 22 23 24 24 24 22 23 26 29 32 33 33 31 29 27 24 22 22 23 23 23 24 25 25 22 19 19 20 21 19 17 16 14 12 13 15 17 15 14 14 16 19 20 20 21 23 24 25 26 27 27 28 28 28 28 29 29 29 29 29 30 30 30 31 31 31 31 32 32 32 32 32 31
18 19 19 19 18 18 18 18 18 19 20 20 21 22 23 24 25 25 25 24 24 25 28 31 33 33 32 31 29 27 25 24 23 24 25 26 26 25 21 20 20 21 21 19 17 16 14 12 12 14 15 14 13 14 17 18 19 20 22 23 24 25 26 27 27 28 28 29 29 29 29 29 29 30 30 30 30 30 31 31 32 32 32 32 32 32
18 18 19 19 19 19 19 19 20 20 21 22 22 23 23 24 25 26 26 26 25 25 25 27 29 31 32 32 31 29 27 24 23 24 25 27 27 27 24 22 21 21 22 21 19 18 16 10 7 7 8 13 17 18 18 18 18 19 21 22 23 24 25 26 26 27 27 28 29 29 29 29 29 29 29 29 29 29 30 30 30 30 30 30 31 31
18 18 19 19 20 20 21 21 21 22 22 23 23 23 23 24 24 25 25 26 26 26 25 25 26 27 29 31 31 29 27 25 24 24 25 26 27 27 26 23 21 21 22 22 21 19 18 14 10 7 5 9 15 19 20 19 19 19 20 21 23 24 25 25 25 26 26 27 28 28 28 29 29 29 29 29 29 29 29 29 29 29 28 28 29 29
18 19 19 20 21 21 22 22 23 23 23 23 22 22 22 22 22 23 24 25 26 27 27 26 25 24 25 27 27 27 27 26 26 26 26 26 27 27 26 24 22 21 21 21 21 20 20 19 18 18 17 15 14 16 18 19 19 19 20 19 20 22 23 23 24 25 26 26 27 27 28 28 28 28 29 29 29 29 29 29 29 28 28 27 27 28
18 19 19 20 21 22 22 23 23 23 23 22 21 20 20 20 20 21 22 23 24 25 26 27 25 24 23 24 25 25 26 26 27 27 27 28 28 28 27 25 23 22 21 20 20 21 21 21 20 21 21 19 18 18 19 20 20 21 21 20 21 23 24 24 24 24 24 25 26 27 27 28 28 28 28 29 29 29 29 29 29 29 28 28 27 27
19 19 20 21 21 22 22 22 22 22 22 21 20 20 20 20 20 20 20 20 21 22 23 24 23 23 23 23 24 24 25 26 27 28 28 29 30 30 29 27 25 23 22 21 21 21 22 22 21 20 20 19 18 18 19 21 22 22 22 22 23 25 25 26 25 24 24 25 26 27 27 27 28 28 28 29 29 30 30 30 30 30 29 29 29 28
20 20 21 21 22 22 22 21 20 20 20 20 20 21 21 21 21 20 20 20 20 21 21 22 22 21 21 21 22 23 25 26 28 28 28 29 30 30 30 29 27 25 22 21 20 21 22 22 21 21 21 20 19 18 18 20 22 23 23 23 23 21 19 22 24 24 24 25 26 26 27 27 27 28 29 29 29 30 30 30 30 30 30 29 29 29
19 20 20 21 21 21 20 20 19 19 19 20 20 21 22 22 21 21 20 19 20 20 20 20 20 20 19 19 20 21 22 24 26 28 28 28 29 29 29 29 28 27 25 22 21 20 20 20 21 21 21 20 19 19 19 20 21 22 23 23 23 22 21 23 25 25 25 26 26 26 26 26 27 27 28 29 29 30 30 30 30 30 30 30 30 30
18 19 19 19 19 19 19 19 20 20 20 20 20 21 21 21 21 21 19 19 19 19 19 19 18 16 15 17 18 19 19 20 22 25 26 27 27 27 27 27 27 27 27 26 24 22 20 19 19 20 20 20 20 20 20 20 21 22 24 24 25 25 26 28 27 26 25 27 27 27 27 26 26 26 27 28 29 29 29 29 30 30 30 30 30 30
17 17 17 18 18 19 19 20 20 20 20 20 20 20 20 21 21 20 20 19 18 18 18 19 17 14 13 14 16 16 16 17 18 20 22 24 25 25 25 25 25 26 26 26 26 25 23 21 20 19 19 18 19 20 21 21 22 23 25 25 25 26 26 27 27 27 27 27 27 27 27 26 26 26 26 27 28 29 29 29 30 30 30 30 30 30
17 17 17 18 18 19 19 20 20 19 19 19 19 19 19 20 20 20 20 20 19 18 18 18 17 16 15 15 15 15 15 15 16 17 19 20 22 23 23 23 24 24 24 25 25 25 25 24 23 21 19 17 17 19 21 22 23 23 23 24 24 25 25 27 28 28 27 26 26 26 26 25 25 25 26 27 27 28 29 29 29 29 29 29 29 29
18 17 17 17 18 18 18 19 19 19 19 19 19 19 19 19 20 20 20 20 19 18 17 16 16 16 16 16 17 16 16 16 16 16 17 18 19 20 21 21 22 22 23 23 23 24 24 25 25 24 21 19 17 18 20 23 23 23 24 24 24 24 25 27 28 28 26 26 27 27 25 24 24 24 25 25 26 27 29 29 29 29 29 28 29 29
18 17 17 17 17 17 17 18 19 19 19 19 19 18 19 19 20 21 20 20 19 18 17 16 16 15 15 16 17 18 17 17 16 16 16 16 17 17 18 19 19 20 20 21 21 22 22 23 24 24 24 22 21 20 22 23 24 24 25 25 25 25 26 27 28 27 26 26 27 27 27 26 26 26 25 24 25 26 29 30 30 30 29 28 28 28
18 17 17 16 16 17 17 18 18 18 19 19 19 18 18 19 19 20 20 20 19 18 18 17 17 16 15 16 17 17 17 17 16 16 16 16 16 15 15 16 17 16 16 16 17 17 17 17 19 21 23 24 23 23 23 24 24 25 25 25 26 26 26 26 27 27 27 27 26 27 27 27 27 27 25 24 25 26 28 29 30 30 29 28 27 28
17 17 16 16 16 16 17 17 18 18 19 19 19 19 18 18 18 19 19 19 19 19 19 19 18 17 16 16 17 17 17 17 16 16 16 16 16 15 15 15 15 14 12 10 10 9 8 8 10 15 19 22 24 24 24 24 23 23 23 25 26 25 24 25 26 26 26 26 25 26 26 26 26 25 24 23 23 24 25 27 29 30 29 27 26 27
Wind_Direction
251 252 252 251 248 245 243 242 240 238 239 240 241 242 243 244 245 245 245 243 242 241 240 240 241 243 244 245 246 246 246 245 243 242 242 241 240 240 240 240 241 242 244 246 248 249 249 250 250 250 250 250 250 251 251 252 252 252 253 253 253 254 255 256 257 257 258 260 261 263 265 267 268 269 270 271 272 273 274 275 276 277 278 279 279 280
250 250 248 247 245 244 243 243 241 240 240 241 242 242 242 241 241 242 242 242 242 242 242 242 243 245 247 248 248 248 247 245 243 242 241 241 240 240 240 240 242 243 245 247 248 249 250 250 250 249 249 249 250 250 250 250 251 251 252 252 252 253 254 255 256 257 258 259 260 262 264 266 268 269 269 270 271 272 273 274 275 277 277 278 279 279
248 248 246 244 242 241 242 243 243 242 242 242 242 242 240 238 237 238 239 240 242 243 245 246 246 247 248 249 250 249 248 245 243 242 241 241 240 240 240 241 243 245 247 249 250 250 250 250 249 249 249 249 249 249 249 249 250 250 251 251 251 252 253 254 255 256 257 258 259 261 264 265 267 267 268 269 271 272 273 274 275 276 277 277 278 279
247 246 245 244 242 242 241 242 243 243 243 243 242 240 238 237 236 236 237 238 240 242 245 247 248 249 249 250 250 249 248 246 243 242 241 241 241 241 242 243 245 247 249 250 251 251 251 250 249 249 249 248 248 248 248 248 249 249 249 250 250 251 251 252 253 254 256 256 258 261 262 264 265 266 267 269 270 272 273 274 275 276 276 277 277 278
245 244 245 244 243 243 242 242 241 242 242 242 240 238 236 235 235 236 237 238 239 241 243 245 246 248 249 249 249 249 247 246 244 243 242 242 243 243 244 246 248 249 251 252 252 252 251 250 249 249 248 248 247 247 247 247 248 248 248 249 249 249 250 251 252 253 254 255 257 259 261 263 264 265 267 268 270 271 273 274 275 275 276 276 277 278
245 244 244 244 244 244 244 241 239 238 239 239 238 237 236 235 236 237 238 239 240 241 242 243 245 246 247 248 248 248 247 246 245 244 244 244 245 246 247 248 250 251 252 253 253 252 251 250 249 248 248 247 247 247 247 247 247 247 248 248 248 249 249 250 251 252 253 255 257 259 260 261 263 264 266 268 270 271 272 273 274 275 275 276 277 277
247 244 243 243 243 244 243 240 236 233 233 234 235 236 236 236 237 238 239 240 240 241 243 244 245 245 246 246 246 246 246 246 245 245 245 246 247 248 248 250 251 252 253 253 252 251 250 249 248 247 247 246 246 246 246 246 246 246 247 247 247 248 249 250 251 252 253 255 256 258 259 261 262 264 266 268 269 270 271 272 273 274 275 275 276 277
248 245 241 240 241 242 242 239 235 232 230 230 232 233 234 236 237 238 240 241 241 241 242 244 245 245 245 245 244 244 244 245 245 245 246 246 247 248 249 250 251 252 253 252 252 251 250 249 247 247 246 245 245 245 245 245 245 245 246 246 247 248 249 250 251 252 253 254 256 257 258 260 262 264 266 267 269 270 271 272 272 273 274 275 275 276
244 244 241 238 237 238 240 239 235 232 229 229 229 230 231 232 234 236 239 240 241 241 241 242 244 245 244 244 243 243 243 244 245 246 246 247 247 248 248 250 251 251 252 251 250 249 249 248 247 246 245 244 244 244 244 244 244 245 245 246 247 248 249 250 251 252 253 254 255 256 258 259 261 264 266 267 268 269 270 271 272 273 273 274 274 275
240 241 242 240 237 236 237 238 237 233 229 229 229 230 229 229 230 232 235 237 238 239 239 239 241 243 244 243 242 242 242 244 245 246 247 248 248 249 250 251 251 251 250 250 249 248 247 246 245 244 244 243 243 243 243 244 244 245 245 246 247 248 249 250 250 251 252 253 254 256 257 259 262 264 266 267 268 269 270 270 271 272 272 273 274 274
239 239 240 240 239 237 236 236 236 232 228 227 229 230 229 227 227 228 232 235 236 235 235 236 237 239 240 241 241 240 240 242 244 245 246 247 248 249 251 251 252 251 250 249 248 247 246 245 244 243 242 242 242 242 243 243 244 245 246 246 247 248 249 250 250 251 252 253 254 255 257 260 262 264 266 267 268 268 269 269 270 271 271 272 273 274
238 237 237 237 237 236 236 236 234 230 224 221 224 228 229 228 226 227 230 234 235 233 233 234 235 236 236 238 238 238 238 239 240 242 244 245 245 246 247 248 249 249 249 248 247 246 245 244 242 241 241 241 241 241 242 243 243 244 245 246 247 248 249 250 250 251 251 252 254 255 257 260 262 264 266 267 267 268 268 268 269 270 270 271 272 273
236 236 236 235 234 233 232 231 229 225 221 217 217 222 226 226 226 227 231 236 237 235 233 234 236 236 235 235 235 235 235 236 238 240 241 242 242 243 243 243 244 244 244 244 244 243 242 241 240 239 239 239 239 240 241 242 243 244 245 246 247 248 249 250 250 251 251 252 254 255 258 260 262 264 265 266 266 267 267 268 268 269 270 271 272 273
233 232 232 232 232 230 228 225 223 222 221 218 219 221 224 225 224 226 231 236 238 237 235 236 237 238 237 235 233 232 232 234 236 238 239 240 240 240 240 240 241 241 240 240 240 239 238 237 237 236 236 236 237 238 239 241 242 244 245 246 247 248 249 250 250 251 251 252 253 255 257 260 262 264 265 265 266 266 266 267 268 269 270 271 272 273
228 227 229 230 231 229 226 225 224 224 224 222 221 222 223 223 223 224 228 233 237 237 236 238 240 241 239 236 233 231 230 231 233 236 238 239 239 239 238 238 239 240 239 238 238 238 236 234 233 232 232 232 233 234 236 238 241 243 245 246 247 248 249 250 250 251 251 252 253 255 257 260 262 263 264 264 265 265 266 267 268 269 270 271 272 273
226 225 227 229 229 229 227 225 224 225 225 224 222 220 219 221 222 224 226 230 233 234 234 237 240 243 243 239 234 230 228 229 230 233 235 238 239 237 235 235 236 237 237 237 237 238 237 235 233 232 231 230 230 231 233 236 238 241 244 246 248 249 249 250 250 250 251 251 253 255 257 259 261 262 263 264 265 265 266 267 268 269 270 270 272 272
226 225 226 228 229 229 228 226 224 224 224 223 221 219 217 218 220 222 225 228 230 231 231 232 232 240 244 243 236 229 225 225 228 232 234 237 238 237 233 231 232 234 236 235 236 237 238 237 235 234 233 232 232 233 234 236 239 241 244 246 248 249 249 250 249 250 250 252 253 255 257 259 261 262 263 264 265 265 266 267 268 268 269 270 271 272
225 224 224 225 227 228 226 224 223 222 220 219 218 218 217 218 219 221 223 225 226 227 229 230 231 233 238 242 236 229 222 221 224 228 232 236 237 236 232 230 229 231 234 234 236 237 238 238 238 237 237 236 236 236 238 239 242 244 246 247 248 249 249 249 249 250 251 252 253 255 257 258 260 261 263 264 264 265 266 266 267 268 269 270 271 272
224 222 221 223 226 226 224 223 220 218 216 214 213 213 216 218 219 219 221 222 224 226 228 231 234 236 238 240 238 230 221 218 219 224 229 234 236 235 231 228 227 229 232 234 235 236 237 239 240 240 240 240 240 240 241 243 244 246 247 248 248 248 249 249 249 250 251 252 253 255 257 258 260 261 262 263 264 265 266 266 267 268 269 270 271 272
224 222 221 221 221 223 223 222 220 217 214 211 209 209 212 215 217 218 220 223 225 226 228 231 234 237 238 239 238 233 224 217 216 219 226 232 235 234 229 225 225 227 231 233 235 235 237 238 240 241 241 241 242 242 243 244 245 246 247 247 248 248 249 249 249 250 251 252 254 255 257 258 259 261 262 263 264 265 265 266 267 268 269 270 271 272
224 225 223 219 218 220 223 222 218 215 214 210 208 208 212 214 216 219 220 222 224 226 228 231 235 236 237 237 236 233 226 217 213 215 224 230 233 232 228 224 223 225 230 233 235 236 237 238 240 241 242 241 241 241 242 243 244 245 247 247 248 248 249 249 250 251 252 253 254 256 257 258 259 261 262 263 264 264 265 266 267 268 269 270 271 272
223 226 223 218 217 219 221 221 218 214 212 207 204 205 209 212 216 219 221 221 222 224 227 230 233 235 236 235 234 232 229 220 214 214 220 229 234 233 227 224 223 225 229 233 235 237 237 238 240 241 242 242 242 242 242 243 244 246 247 248 249 249 249 250 251 252 253 254 255 256 257 259 260 261 262 263 263 264 265 266 267 268 269 270 271 273
224 227 226 221 217 216 219 220 218 215 210 207 207 209 212 213 215 218 220 220 221 223 226 230 233 235 235 235 234 233 230 225 220 217 219 226 234 232 227 222 221 223 228 232 234 236 237 238 239 241 243 243 242 242 243 244 245 246 248 249 250 250 251 251 252 253 253 254 255 257 258 259 260 261 262 263 263 264 265 266 267 268 269 270 272 273
223 226 225 222 219 218 217 217 215 213 210 209 210 212 214 216 218 219 219 220 220 222 226 229 232 233 234 234 233 232 230 227 222 219 221 229 235 233 227 221 220 224 230 233 234 235 236 238 239 241 242 243 243 243 244 245 246 247 249 250 251 251 252 252 253 253 254 255 256 257 258 259 260 261 262 263 263 264 264 265 266 268 269 271 272 274
223 223 224 222 221 219 217 215 214 212 211 211 211 213 216 217 219 221 222 221 220 220 221 222 225 228 230 230 230 230 228 225 221 218 222 230 237 236 231 224 222 226 233 236 236 236 236 238 240 241 242 243 244 244 244 245 247 248 249 250 251 252 252 253 253 254 254 255 256 257 259 260 261 262 262 263 263 264 264 265 266 268 269 271 273 274
226 223 222 222 221 220 219 217 216 215 215 213 212 213 214 215 217 219 220 218 216 213 212 215 220 225 226 225 225 226 226 223 220 218 220 227 235 236 233 228 226 230 235 238 238 236 236 238 240 241 242 243 244 245 245 246 247 248 250 251 252 252 253 253 253 254 255 256 257 258 259 261 261 262 262 263 263 264 264 265 266 268 270 272 274 276
238 230 225 222 221 221 221 220 220 220 219 218 216 214 212 211 211 213 215 214 210 207 207 211 218 222 223 224 224 225 223 221 218 217 219 223 230 235 234 230 229 231 236 239 239 238 237 239 240 242 243 244 245 246 246 247 248 249 251 252 252 253 253 254 254 254 255 257 258 259 260 261 261 262 262 262 263 263 264 265 267 269 271 273 275 276
251 243 233 225 222 221 221 221 221 221 220 219 218 215 212 208 207 211 215 213 209 206 208 211 214 215 218 222 224 224 222 220 218 216 215 218 226 233 233 231 229 230 234 239 242 241 240 241 242 243 244 245 246 247 248 248 249 250 251 252 252 253 253 254 254 255 256 257 258 259 260 261 261 262 262 262 263 263 264 266 267 270 272 274 275 276
255 254 250 239 230 225 222 221 221 221 221 221 220 217 213 209 208 210 214 211 207 206 210 214 217 218 221 224 225 225 223 222 219 215 211 214 223 231 232 230 229 228 231 237 243 245 244 244 244 244 245 245 246 247 248 249 249 250 251 252 252 252 252 253 254 255 256 257 258 259 260 261 261 261 262 262 263 264 265 266 268 270 272 273 274 275
253 255 256 254 247 238 229 224 222 222 223 223 222 219 216 213 211 211 212 209 206 206 211 215 217 218 220 223 224 226 226 224 219 212 207 209 219 228 228 227 226 225 224 228 238 247 247 246 245 244 244 245 245 246 247 248 248 249 250 251 251 251 251 252 253 255 256 257 258 259 259 260 260 261 261 262 263 264 265 266 268 269 271 272 273 274
248 250 252 254 254 251 244 235 229 226 224 224 223 221 219 216 214 213 212 209 207 208 212 216 217 217 216 213 212 218 223 223 217 210 205 208 217 225 224 224 224 223 219 217 213 242 247 247 246 244 242 242 243 244 245 246 247 248 249 250 250 251 251 252 253 255 256 257 258 258 258 259 260 260 261 262 263 264 264 265 267 268 270 271 272 272
244 244 245 247 249 250 249 247 241 234 230 227 225 223 222 220 217 214 211 209 209 210 213 217 219 219 218 217 218 222 225 222 215 208 205 209 218 224 223 222 222 222 219 217 218 224 238 246 248 245 240 240 241 243 244 245 246 247 247 248 249 251 252 253 254 255 256 256 257 257 257 258 259 259 260 261 262 263 264 265 266 267 268 270 271 271
240 240 241 242 243 244 245 245 244 241 237 234 230 227 226 224 221 216 212 210 209 210 211 215 218 219 220 221 224 228 230 226 217 209 205 208 215 223 223 222 221 221 220 219 222 227 235 244 252 253 248 245 244 244 245 245 245 246 246 247 249 252 254 255 255 254 255 255 255 256 256 257 257 258 259 260 261 262 263 264 264 265 266 268 269 270
236 237 237 237 237 238 239 240 239 238 237 237 235 234 232 232 230 223 216 211 210 210 210 211 213 216 217 220 223 227 229 227 221 213 206 206 212 220 222 220 220 220 218 220 223 228 236 242 247 252 255 254 251 248 247 246 246 246 247 249 250 253 255 255 254 254 253 254 254 255 255 256 256 257 258 259 260 261 262 262 263 264 264 265 266 267
231 232 232 232 231 232 233 234 234 234 234 234 234 235 236 237 239 236 227 217 213 212 212 212 213 214 214 216 219 223 226 225 222 216 209 207 211 218 221 220 219 218 216 218 220 225 234 239 241 245 251 256 255 253 250 248 248 248 249 250 250 252 254 255 254 253 253 253 253 253 253 254 255 256 257 258 259 260 261 262 263 263 263 263 263 264
223 226 227 227 227 227 228 229 229 229 230 231 231 232 234 236 238 240 239 231 221 216 214 215 216 216 217 218 220 223 225 226 223 218 214 211 212 216 221 222 219 216 215 217 220 223 229 237 241 243 246 252 256 257 254 251 250 249 249 250 250 252 254 254 254 253 252 252 253 253 253 254 254 255 256 258 259 260 261 262 263 263 263 263 263 263
217 220 221 221 222 223 225 226 227 227 228 229 229 230 231 233 235 237 239 239 233 225 218 217 217 219 220 223 224 226 228 228 226 222 218 215 215 216 220 223 221 217 214 216 220 224 229 237 244 245 246 248 252 256 257 255 252 249 249 249 251 252 254 255 254 252 252 252 253 253 254 254 255 256 257 259 260 261 262 262 263 263 264 264 264 264
215 216 217 217 219 221 224 227 228 228 227 228 228 229 230 230 231 233 234 236 236 231 224 219 218 219 221 224 226 227 228 228 228 225 221 218 215 216 219 222 221 219 217 218 222 226 231 237 242 245 247 249 250 252 255 255 253 251 251 252 253 254 255 255 255 253 252 252 253 254 254 254 255 256 257 258 260 261 261 261 262 263 263 264 265 265
216 217 218 218 218 220 223 225 227 227 226 227 228 229 229 230 230 231 231 232 233 232 228 224 220 218 219 221 224 226 226 226 225 224 220 217 215 214 216 219 221 222 222 224 226 229 233 237 239 240 243 250 252 253 254 254 254 254 256 259 259 258 257 257 255 254 252 252 253 254 255 254 254 255 256 257 258 258 259 260 261 262 263 265 266 266
218 220 220 220 220 220 222 223 225 226 226 228 229 229 229 229 229 230 231 232 232 232 231 229 225 222 220 219 220 222 223 223 223 222 220 218 216 216 216 218 222 225 227 230 231 233 236 239 241 244 247 250 253 254 255 255 254 255 259 262 263 262 260 259 257 255 254 252 253 253 254 255 255 255 255 256 256 256 257 259 261 262 263 264 265 267
219 221 223 223 222 222 223 223 224 225 225 225 225 225 226 226 226 228 230 230 231 231 231 231 229 228 226 224 222 222 222 223 223 223 223 223 222 222 222 224 226 229 232 234 236 237 238 240 242 245 247 249 252 255 257 257 257 258 260 261 263 265 265 264 261 258 257 255 255 255 255 256 256 256 256 256 256 256 257 258 260 262 263 263 263 265
221 223 223 223 223 223 223 224 224 224 223 221 220 220 220 221 222 223 225 226 227 228 228 228 228 228 229 229 228 227 226 226 226 227 228 229 229 230 230 231 232 233 235 237 239 239 239 240 242 244 245 247 251 254 258 259 260 260 260 262 265 269 270 268 264 262 260 259 259 258 258 257 257 257 257 257 258 258 258 259 260 261 263 263 263 263
224 224 224 223 223 223 223 223 221 220 219 218 218 219 220 220 220 220 222 223 224 225 225 224 224 225 227 229 230 230 230 231 231 231 232 232 233 233 234 234 234 234 233 234 237 239 240 240 241 243 245 247 249 253 258 260 262 262 262 262 265 268 270 269 267 265 263 262 261 260 259 257 257 257 258 259 260 260 260 260 261 261 262 263 263 263
225 225 225 224 223 222 222 220 219 217 215 215 217 220 221 220 219 219 220 221 222 222 221 221 220 221 223 226 228 229 230 232 233 233 233 233 233 233 233 233 233 233 232 231 233 237 239 241 242 244 246 248 250 253 256 259 262 263 263 263 263 263 264 267 269 269 267 265 263 262 260 258 258 258 260 260 261 261 261 262 262 262 262 262 262 262
224 225 224 222 220 218 218 218 217 217 216 217 219 220 220 219 217 217 217 218 219 218 217 214 213 215 219 223 225 226 227 229 230 231 231 232 232 232 232 232 232 233 232 232 232 234 237 240 244 246 248 249 251 253 256 259 262 264 266 266 265 264 263 265 267 268 267 267 265 264 262 260 260 260 261 261 261 261 261 262 262 262 262 262 262 261
223 222 220 219 217 217 217 217 217 216 216 218 219 220 219 217 215 214 215 215 215 214 213 210 208 210 215 218 220 220 221 223 224 225 227 228 229 230 230 231 232 232 233 233 234 235 236 239 243 247 250 252 253 254 255 258 261 265 267 267 267 266 266 266 266 266 265 265 265 264 263 262 260 260 260 261 262 262 262 262 262 262 262 262 262 261
219 218 216 216 216 216 216 216 215 214 215 218 219 219 218 215 212 211 212 212 212 210 209 207 207 210 214 216 216 216 217 218 219 220 222 224 226 227 228 230 232 233 234 235 236 237 238 240 242 244 247 251 254 256 257 258 260 262 264 266 267 267 267 267 267 266 265 264 264 263 263 261 260 259 260 261 263 264 264 263 262 262 262 262 262 261
217 216 215 215 215 214 214 213 212 212 214 217 218 218 217 213 209 208 209 210 209 208 206 205 207 211 215 218 218 218 218 219 219 219 219 219 222 224 226 229 231 233 234 236 238 239 240 241 241 241 241 244 250 257 260 261 261 261 263 265 267 267 266 267 267 267 265 264 263 262 261 259 258 259 261 263 264 265 266 265 265 263 262 261 261 261
219 217 215 213 213 212 212 211 210 211 213 216 217 218 216 212 210 209 208 208 208 207 206 206 207 211 215 219 221 221 221 222 222 221 219 218 218 220 223 225 228 230 233 235 238 240 242 244 244 243 242 242 247 254 260 262 262 263 264 265 265 265 266 267 267 267 266 265 264 262 260 258 257 258 260 262 264 265 267 268 267 266 264 262 261 260
221 217 214 212 211 211 212 211 210 211 214 216 217 217 215 212 209 208 208 208 207 208 209 209 210 212 216 219 221 222 222 222 223 222 220 218 217 216 218 220 221 223 227 232 237 241 245 249 250 249 248 245 245 248 255 259 262 263 262 262 262 263 264 265 267 267 267 266 265 263 260 258 257 256 257 259 262 265 268 269 269 268 266 264 262 261
223 219 216 214 213 213 213 212 212 213 215 216 217 216 214 210 209 208 208 208 208 209 211 212 213 214 217 220 221 221 221 220 220 220 219 218 216 215 215 215 214 213 217 226 234 238 244 251 256 255 253 249 245 244 247 253 258 260 261 261 261 261 262 264 265 266 266 265 263 261 259 257 255 254 253 255 260 264 267 269 270 270 269 267 265 263